TimeCST,TemperatureF,Dew PointF,Humidity,Sea Level PressureIn,VisibilityMPH,Wind Direction,Wind SpeedMPH,Gust SpeedMPH,PrecipitationIn,Events,Conditions,WindDirDegrees,DateUTC
12:56 AM,54.9,52.9,93,29.78,10.0,Calm,Calm,-,N/A,,Overcast,0,2012-12-17 06:56:00
1:32 AM,55.4,53.6,94,29.80,10.0,Calm,Calm,-,N/A,,Overcast,0,2012-12-17 07:32:00
1:56 AM,55.9,54.0,93,29.78,10.0,Variable,3.5,-,N/A,,Overcast,0,2012-12-17 07:56:00
2:46 AM,55.4,53.6,94,29.78,10.0,Calm,Calm,-,0.00,,Mostly Cloudy,0,2012-12-17 08:46:00
2:56 AM,55.4,53.6,94,29.78,10.0,Calm,Calm,-,N/A,Rain,Light Rain,0,2012-12-17 08:56:00
3:10 AM,55.4,53.6,94,29.78,10.0,Calm,Calm,-,0.00,,Overcast,0,2012-12-17 09:10:00
3:56 AM,55.9,54.9,96,29.75,10.0,SSW,3.5,-,0.00,,Overcast,200,2012-12-17 09:56:00
4:23 AM,55.4,55.4,100,29.76,10.0,South,6.9,-,N/A,,Overcast,190,2012-12-17 10:23:00
4:56 AM,55.9,54.9,96,29.74,8.0,South,6.9,-,0.00,Rain,Light Rain,190,2012-12-17 10:56:00
5:56 AM,55.9,54.9,96,29.74,10.0,South,4.6,-,0.00,Rain,Light Rain,180,2012-12-17 11:56:00
6:14 AM,55.4,55.4,100,29.76,10.0,Calm,Calm,-,0.00,,Overcast,0,2012-12-17 12:14:00
6:56 AM,55.9,54.9,96,29.73,10.0,South,8.1,-,0.00,,Overcast,190,2012-12-17 12:56:00
7:23 AM,55.4,55.4,100,29.74,10.0,Calm,Calm,-,N/A,,Overcast,0,2012-12-17 13:23:00
7:56 AM,55.9,55.9,100,29.72,10.0,Calm,Calm,-,N/A,,Overcast,0,2012-12-17 13:56:00
8:56 AM,56.8,55.9,97,29.71,10.0,South,6.9,-,N/A,,Mostly Cloudy,190,2012-12-17 14:56:00
9:56 AM,57.9,55.9,93,29.70,10.0,SSW,6.9,-,N/A,,Mostly Cloudy,200,2012-12-17 15:56:00
10:56 AM,59.9,55.9,87,29.70,10.0,SW,6.9,-,N/A,,Mostly Cloudy,230,2012-12-17 16:56:00
11:38 AM,60.8,53.6,77,29.68,10.0,SW,10.4,-,N/A,,Scattered Clouds,220,2012-12-17 17:38:00
11:56 AM,61.9,54.0,75,29.65,10.0,SW,12.7,17.3,N/A,,Partly Cloudy,230,2012-12-17 17:56:00
12:56 PM,64.9,52.9,65,29.63,10.0,WSW,11.5,-,N/A,,Partly Cloudy,240,2012-12-17 18:56:00
1:56 PM,64.9,50.9,60,29.61,10.0,WSW,17.3,21.9,N/A,,Partly Cloudy,250,2012-12-17 19:56:00
2:56 PM,63.9,50.0,61,29.60,10.0,WSW,4.6,-,N/A,,Mostly Cloudy,240,2012-12-17 20:56:00
3:15 PM,62.6,51.8,68,29.66,10.0,NNW,33.4,43.7,0.00,Rain,Light Rain,330,2012-12-17 21:15:00
3:18 PM,59.0,51.8,77,29.66,2.0,NNW,26.5,43.7,0.03,Rain,Heavy Rain,330,2012-12-17 21:18:00
3:30 PM,51.8,46.4,82,29.66,4.0,West,9.2,24.2,0.13,Rain,Light Rain,270,2012-12-17 21:30:00
3:56 PM,50.9,47.8,89,29.66,7.0,Calm,Calm,-,0.15,Rain,Rain,0,2012-12-17 21:56:00
6:56 PM,45.9,45.9,100,29.68,10.0,Calm,Calm,-,N/A,,Clear,0,2012-12-18 00:56:00
7:56 PM,48.9,46.9,93,29.68,10.0,WNW,6.9,-,N/A,,Clear,300,2012-12-18 01:56:00
8:56 PM,47.8,46.9,97,29.70,10.0,Calm,Calm,-,N/A,,Scattered Clouds,0,2012-12-18 02:56:00
9:04 PM,46.4,46.4,100,29.72,10.0,Calm,Calm,-,N/A,,Mostly Cloudy,0,2012-12-18 03:04:00
9:48 PM,50.0,46.4,87,29.74,10.0,WNW,8.1,-,N/A,,Overcast,290,2012-12-18 03:48:00
9:56 PM,50.0,46.9,89,29.74,10.0,WNW,9.2,-,N/A,,Overcast,300,2012-12-18 03:56:00
10:03 PM,50.0,46.4,87,29.76,10.0,NW,10.4,-,N/A,,Overcast,310,2012-12-18 04:03:00
10:56 PM,47.8,43.0,83,29.78,10.0,NW,12.7,-,N/A,,Overcast,310,2012-12-18 04:56:00
11:56 PM,45.9,41.0,83,29.80,10.0,NW,11.5,-,N/A,,Overcast,310,2012-12-18 05:56:00